Flag for U.S.A. Weather past 2 weeks in Hereford, Texas, U.S.A.

Now
34 °F

Clear.


Feels Like: 34 °F
Forecast: 36 / 70 °F
Wind: No wind

Location: Clovis Municipal

Current Time: Apr 18, 2015 at 7:01:35 AM

Latest Report: Apr 18, 2015 at 6:35 AM


Visibility: 10 mi

Pressure: 29.97 "Hg

Humidity: 60%

Dew point: 21 °F

Location of HerefordLocation

Historic Weather in Hereford — Graph

°F

Hereford temperature yesterday

Maximum temperature yesterday: 68 °F (at 5:35 PM)
Minimum temperature yesterday: 37 °F (at 7:35 AM)
Average temperature yesterday: 54 °F

Past Weeks' High & Low Weather Summary

 TemperatureHumidityPressure
High84 °F (Apr 8, 3:35 PM)94% (Apr 12, 5:15 AM)30.40 "Hg (Apr 12, 5:15 AM)
Low32 °F (Apr 4, 7:35 AM)11% (Apr 7, 7:15 PM)29.66 "Hg (Apr 8, 6:15 PM)
Average56 °F43%30.00 "Hg
* Reported Apr 3 5:15 AM — Apr 18 5:55 AM, Hereford, Weather by CustomWeather, © 2015

Note: Actual official high and low records may vary slightly from our data, if they occured in-between our weather recording intervals... More about our weather records

Advertising

Hereford weather history for previous 24 hours

 ConditionsComfort  
Time TempWeatherWind HumidityBarometerVisibility
5:55 AM
Sat, Apr 18
34 °FClear.6 mph60%29.97 "Hg10 mi
5:35 AM34 °FClear.6 mph56%29.97 "Hg10 mi
5:15 AM36 °FClear.8 mph56%29.97 "Hg10 mi
4:55 AM37 °FClear.12 mph52%29.97 "Hg10 mi
4:35 AM37 °FClear.7 mph52%29.98 "Hg10 mi
4:15 AM39 °FClear.8 mph45%29.98 "Hg10 mi
3:55 AM41 °FClear.8 mph42%29.98 "Hg10 mi
3:35 AM39 °FClear.6 mph45%29.98 "Hg10 mi
3:15 AM37 °FClear.6 mph48%29.98 "Hg10 mi
2:55 AM43 °FClear.8 mph39%29.99 "Hg10 mi
2:35 AM43 °FClear.10 mph39%29.99 "Hg10 mi
2:15 AM43 °FClear.8 mph36%29.99 "Hg10 mi
1:55 AM45 °FClear.12 mph34%29.99 "Hg10 mi
1:35 AM45 °FClear.10 mph34%29.99 "Hg10 mi
1:15 AM39 °FClear.10 mph45%29.99 "Hg10 mi
12:55 AM39 °FClear.7 mph42%29.99 "Hg10 mi
12:15 AM45 °FClear.9 mph34%29.99 "Hg10 mi
11:55 PM
Fri, Apr 17
46 °FClear.7 mph32%29.99 "Hg10 mi
11:35 PM45 °FClear.9 mph34%29.99 "Hg10 mi
11:15 PM46 °FClear.10 mph32%29.99 "Hg10 mi
10:15 PM48 °FClear.8 mph32%29.99 "Hg10 mi
9:55 PM48 °FClear.8 mph32%29.97 "Hg10 mi
9:35 PM52 °FClear.7 mph28%29.97 "Hg10 mi
9:15 PM52 °FSunny.8 mph28%29.95 "Hg10 mi
8:55 PM54 °FSunny.9 mph26%29.94 "Hg10 mi
8:35 PM57 °FSunny.7 mph21%29.93 "Hg10 mi
8:15 PM59 °FSunny.9 mph18%29.92 "Hg10 mi
7:55 PM63 °FSunny.13 mph15%29.92 "Hg10 mi
7:35 PM64 °FSunny.14 mph14%29.92 "Hg10 mi
7:15 PM64 °FSunny.14 mph13%29.92 "Hg10 mi
6:55 PM66 °FSunny.18 mph13%29.92 "Hg10 mi
6:35 PM66 °FSunny.15 mph13%29.92 "Hg10 mi
6:15 PM66 °FSunny.20 mph13%29.92 "Hg10 mi
5:55 PM68 °FSunny.13 mph13%29.92 "Hg10 mi
5:35 PM68 °FMild.21 mph13%29.92 "Hg10 mi
5:15 PM66 °FMild.17 mph14%29.92 "Hg10 mi
4:55 PM66 °FMild.21 mph14%29.92 "Hg10 mi
4:35 PM66 °FMild.14 mph14%29.93 "Hg10 mi
4:15 PM66 °FMild.18 mph14%29.93 "Hg10 mi
3:55 PM66 °FMild.10 mph13%29.95 "Hg10 mi
3:35 PM66 °FSunny.14 mph13%29.95 "Hg10 mi
3:15 PM66 °FSunny.20 mph13%29.96 "Hg10 mi
2:55 PM64 °FSunny.18 mph14%29.98 "Hg10 mi
2:35 PM64 °FSunny.16 mph14%29.99 "Hg10 mi
2:15 PM63 °FSunny.13 mph14%29.99 "Hg10 mi
1:55 PM63 °FSunny.13 mph14%30.00 "Hg10 mi
1:35 PM63 °FSunny.12 mph14%30.01 "Hg10 mi
1:15 PM61 °FSunny.15 mph13%30.02 "Hg10 mi
12:55 PM61 °FSunny.10 mph13%30.03 "Hg10 mi
12:35 PM61 °FSunny.6 mph13%30.04 "Hg10 mi
12:15 PM61 °FSunny.10 mph13%30.04 "Hg10 mi
11:55 AM61 °FSunny.6 mph15%30.05 "Hg10 mi
11:35 AM59 °FSunny.8 mph14%30.05 "Hg10 mi
11:15 AM57 °FSunny.6 mph15%30.05 "Hg10 mi
10:55 AM57 °FSunny.5 mph20%30.05 "Hg10 mi
10:35 AM55 °FSunny.5 mph23%30.05 "Hg10 mi
10:15 AM55 °FSunny.6 mph24%30.05 "Hg10 mi
9:55 AM54 °FSunny.8 mph26%30.04 "Hg10 mi
9:35 AM52 °FSunny.7 mph28%30.05 "Hg10 mi
9:15 AM50 °FSunny.7 mph32%30.04 "Hg10 mi
8:55 AM46 °FSunny.8 mph40%30.04 "Hg10 mi
8:35 AM43 °FSunny.8 mph46%30.03 "Hg10 mi
8:15 AM37 °FClear.8 mph48%30.03 "Hg10 mi
7:55 AM39 °FClear.12 mph45%30.02 "Hg10 mi
7:35 AM37 °FClear.10 mph52%30.01 "Hg10 mi
7:15 AM39 °FClear.10 mph48%30.00 "Hg10 mi
Weather by CustomWeather, © 2015

See weather overviewHow to use our weather pages